Cloud_Cover
100 100 48 74 100 79 13 30 31 21 22 17 14 0 0 0 0 0 0 0 0 0 0 0 0 0 0 0 17 4 57 63 14 5 14 82 82 2 0 2 40 1 8 24 100
100 100 100 100 31 17 14 12 2 29 18 3 10 0 0 0 0 0 0 0 0 0 0 0 0 0 0 0 1 5 5 4 0 0 0 16 50 100 4 0 36 6 100 100 7
100 100 100 100 34 24 28 7 9 12 19 0 3 0 0 1 0 0 0 0 0 0 0 0 0 0 0 0 0 0 0 0 0 0 0 3 100 100 48 70 1 5 60 98 15
100 100 100 75 42 28 30 22 0 5 0 0 1 0 0 0 0 0 0 0 0 0 0 0 0 0 0 0 0 0 0 0 0 0 0 0 1 85 79 26 48 0 51 100 100
100 100 100 100 100 32 19 0 0 0 0 0 0 0 0 0 0 0 0 0 0 0 0 0 0 0 5 3 0 0 1 0 0 0 0 1 5 97 95 16 93 71 47 100 100
100 100 100 100 100 88 3 0 0 0 0 0 0 0 0 0 0 0 0 0 0 0 0 0 0 0 0 0 0 0 0 0 2 0 0 0 17 4 74 88 100 100 64 66 100
100 100 100 100 100 100 8 0 0 0 0 0 0 0 0 0 0 0 0 0 0 0 0 0 0 0 0 0 0 0 0 0 5 3 0 0 0 0 25 11 100 100 66 14 0
100 100 100 100 100 62 0 0 0 0 0 0 0 0 0 0 0 0 0 0 0 0 0 0 0 0 0 0 0 0 1 5 3 5 0 0 0 4 5 20 14 9 10 15 7
100 100 100 100 100 1 0 0 0 0 0 0 0 0 0 0 0 0 0 0 0 0 0 0 0 0 0 0 0 0 1 72 90 0 0 0 0 2 0 3 30 67 100 99 100
100 100 100 100 41 0 0 0 0 0 0 0 0 0 0 0 0 0 0 0 0 0 0 0 0 0 0 0 0 0 38 40 31 0 0 1 0 0 0 0 72 22 85 52 94
100 98 99 100 6 0 0 0 0 0 0 0 0 0 0 0 0 0 0 0 0 0 0 0 0 0 0 0 0 0 0 0 0 30 5 3 0 0 2 59 4 2 0 38 81
100 100 100 100 0 0 0 0 0 0 0 0 0 0 0 0 0 0 0 0 0 0 0 0 0 0 0 0 0 0 0 0 5 92 26 0 0 5 76 18 66 100 95 21 6
100 100 100 12 2 0 0 0 0 0 0 0 0 0 0 0 0 0 0 0 0 0 0 0 0 0 0 0 0 0 0 0 100 56 2 0 1 78 100 80 100 89 86 15 0
100 100 100 6 10 0 0 0 0 0 0 0 0 0 0 0 0 0 0 0 0 0 0 0 0 0 0 0 0 0 2 59 1 0 5 3 1 100 100 96 4 2 58 40 1
100 100 96 52 30 0 0 0 0 0 0 2 0 0 0 0 0 0 0 0 0 0 0 0 0 0 0 0 0 0 0 6 58 2 33 66 4 100 100 100 92 9 45 83 10
100 100 97 0 0 0 0 0 0 0 3 0 0 0 0 0 0 0 0 0 0 0 0 0 0 0 0 0 0 0 0 0 57 93 100 48 21 90 100 100 100 40 34 96 96
100 100 57 0 0 0 0 0 0 0 0 0 0 0 0 0 0 0 0 0 0 0 0 1 31 6 0 0 0 0 0 1 7 100 64 6 5 100 100 98 100 100 100 15 2
96 96 3 1 0 0 0 0 0 6 91 16 0 0 0 0 0 0 0 0 0 0 2 13 37 37 0 0 0 0 2 40 59 98 44 97 70 100 100 100 100 100 100 50 0
87 5 3 0 0 0 0 0 5 6 7 69 0 0 0 2 5 0 0 0 0 0 44 40 52 42 0 0 0 0 0 39 6 51 99 9 50 80 100 100 100 100 100 100 10
5 1 0 0 0 0 0 0 11 99 95 84 0 0 2 0 2 0 0 0 13 97 48 35 5 54 84 3 0 4 3 2 62 100 33 27 15 100 100 100 99 100 100 100 15
4 0 0 0 0 0 4 6 13 12 71 45 99 78 98 70 6 28 52 94 98 3 1 4 3 3 89 58 34 43 74 2 56 98 94 50 23 13 100 100 100 100 100 78 4
0 0 0 0 0 0 0 37 5 4 6 0 91 87 72 100 78 61 90 33 88 3 0 0 0 0 61 72 78 97 38 64 90 84 56 99 83 29 81 89 100 100 100 90 12
5 0 0 0 0 0 3 68 43 44 0 6 99 100 64 80 73 77 98 90 81 6 0 0 0 0 0 5 6 42 21 80 100 78 5 97 85 88 100 100 100 100 100 100 56
0 0 0 0 0 0 5 99 24 1 0 1 51 100 86 100 99 100 12 12 5 0 0 0 0 0 0 2 1 0 6 34 3 2 10 21 49 5 100 100 71 100 51 47 1
0 18 1 0 0 4 4 18 5 11 0 0 1 4 43 6 34 24 19 34 5 0 0 0 0 0 0 0 0 0 0 0 0 0 0 0 0 0 19 100 6 5 2 0 92
0 0 0 0 0 5 5 6 100 80 3 2 0 0 0 4 3 5 0 0 0 0 0 0 0 0 0 0 0 0 0 0 4 0 0 0 2 0 0 2 4 3 53 91 2
0 2 79 0 0 4 83 100 100 5 100 79 4 0 0 0 0 0 0 0 0 0 0 0 0 0 0 0 0 3 0 1 92 42 0 0 0 0 39 100 100 100 98 99 96